FW3988 Weather Reports


time (UTC)temp
C
wind
direction
speed
KPH
gust
KPH
rain 1hr
cm
rain 24hr
cm
rain mn
cm
humidity
%
barometer
mb
20260901020030 30 277 1.6 6.4 0.00 0.05 0.05 78 1011.7
20260901014516 30 271 3.2 9.7 0.00 0.05 0.05 77 1011.3
20260901013008 30 255 3.2 11.3 0.00 0.05 0.05 77 1011.2
20260901011500 30 285 6.4 12.9 0.00 0.05 0.05 76 1011.3
20260901010034 30 241 3.2 8.0 0.00 0.05 0.05 77 1011.2
20260901004517 31 239 3.2 9.7 0.00 0.05 0.05 75 1011.1
20260901003010 31 254 4.8 11.3 0.00 0.05 0.05 75 1011.0
20260901001554 31 209 3.2 11.3 0.00 0.05 0.05 74 1011.0
20260901000140 31 246 6.4 11.3 0.00 0.05 0.05 73 1011.0
20260831234524 31 223 4.8 12.9 0.00 0.05 0.05 72 1011.0
20260831233017 31 220 4.8 12.9 0.00 0.05 0.05 72 1010.8
20260831231559 31 250 4.8 12.9 0.00 0.05 0.05 72 1010.8
20260831230038 31 240 4.8 14.5 0.00 0.05 0.05 72 1011.0
20260831224512 32 222 4.8 11.3 0.00 0.05 0.05 70 1011.1
20260831223006 31 225 8.0 16.1 0.00 0.05 0.05 71 1011.3
20260831221620 32 198 4.8 17.7 0.00 0.05 0.05 71 1011.3
20260831220139 32 215 6.4 17.7 0.00 0.05 0.05 69 1011.3
20260831214536 32 225 1.6 9.7 0.00 0.05 0.05 72 1011.5
20260831213024 31 119 4.8 12.9 0.00 0.05 0.05 71 1011.7
20260831211505 32 122 1.6 14.5 0.00 0.05 0.05 70 1012.1
20260831210025 31 182 1.6 11.3 0.00 0.05 0.05 70 1012.2
20260831204508 32 141 0.0 9.7 0.00 0.05 0.05 71 1012.5
20260831203047 31 172 1.6 16.1 0.00 0.05 0.05 70 1012.6
20260831201536 32 225 0.0 12.9 0.00 0.05 0.05 70 1012.7
20260831200133 32 107 1.6 12.9 0.00 0.05 0.05 68 1012.9
20260831194547 31 194 1.6 14.5 0.00 0.05 0.05 68 1013.1
20260831193009 32 111 3.2 14.5 0.00 0.05 0.05 68 1013.2
20260831191554 31 123 1.6 14.5 0.00 0.05 0.05 67 1013.5
20260831190150 31 140 1.6 12.9 0.00 0.05 0.05 67 1013.6
20260831184540 31 129 6.4 19.3 0.00 0.05 0.05 70 1013.8
20260831183001 31 121 4.8 12.9 0.00 0.05 0.05 68 1014.0
20260831181556 30 107 6.4 17.7 0.00 0.05 0.05 70 1014.2
20260831180026 31 151 3.2 16.1 0.00 0.05 0.05 68 1014.4
20260831174514 31 131 4.8 16.1 0.00 0.05 0.05 68 1014.5
20260831173009 30 182 0.0 16.1 0.00 0.05 0.05 72 1014.6
20260831171558 29 121 6.4 14.5 0.00 0.05 0.05 73 1014.5
20260831170150 29 104 6.4 16.1 0.00 0.05 0.05 75 1014.5
20260831164515 28 113 11.3 17.7 0.00 0.05 0.05 76 1014.3
20260831163006 28 92 8.0 14.5 0.00 0.05 0.05 79 1014.2
20260831161611 27 119 3.2 12.9 0.00 0.05 0.05 84 1014.1
20260831160023 27 109 3.2 8.0 0.00 0.05 0.05 86 1014.2
20260831154613 26 101 6.4 16.1 0.03 0.05 0.05 87 1014.1
20260831153055 25 65 8.0 16.1 0.05 0.05 0.05 90 1014.2
20260831151547 25 92 9.7 22.5 0.05 0.05 0.05 91 1014.4
20260831150143 25 112 11.3 25.7 0.05 0.05 0.05 91 1014.7
20260831144555 25 118 19.3 33.8 0.05 0.05 0.05 87 1014.8
20260831143055 27 125 19.3 30.6 0.00 0.00 0.00 83 1014.9
20260831141557 27 109 17.7 30.6 0.00 0.00 0.00 85 1014.3
20260831140032 27 93 11.3 25.7 0.00 0.00 0.00 86 1014.2
20260831134511 27 128 14.5 24.1 0.00 0.00 0.00 84 1013.5
20260831133105 27 92 9.7 16.1 0.00 0.00 0.00 80 1013.6
20260831131545 27 110 3.2 12.9 0.00 0.00 0.00 81 1013.4
20260831130134 27 86 3.2 11.3 0.00 0.00 0.00 81 1013.0
20260831124527 27 50 0.0 3.2 0.00 0.00 0.00 80 1012.6
20260831123023 27 49 0.0 3.2 0.00 0.00 0.00 79 1012.3
20260831121600 27 50 0.0 3.2 0.00 0.00 0.00 79 1012.3
20260831121504 27 50 0.0 3.2 0.00 0.00 0.00 79 1012.3
20260831120146 27 50 0.0 4.8 0.00 0.00 0.00 78 1012.3
20260831114526 27 56 1.6 4.8 0.00 2.11 0.00 77 1012.1
20260831113019 27 26 3.2 8.0 0.00 2.11 0.00 76 1011.7
20260831111516 27 18 0.0 4.8 0.00 2.11 0.00 75 1011.4
20260831110154 28 53 0.0 3.2 0.00 2.11 0.00 76 1011.3
20260831104533 28 53 0.0 1.6 0.00 2.11 0.00 74 1011.2
20260831103034 28 53 0.0 3.2 0.00 2.11 0.00 74 1011.1
20260831101559 27 53 0.0 3.2 0.00 2.11 0.00 75 1011.2
20260831100144 27 53 0.0 6.4 0.00 2.11 0.00 76 1011.2
20260831094531 27 33 1.6 6.4 0.00 2.11 0.00 76 1011.2
20260831093015 27 19 1.6 6.4 0.00 2.11 0.00 75 1011.2
20260831091613 28 19 3.2 8.0 0.00 2.11 0.00 74 1011.2
20260831090152 28 346 3.2 6.4 0.00 2.11 0.00 74 1011.3
20260831084530 28 23 1.6 6.4 0.00 2.11 0.00 75 1011.3
20260831083023 28 24 3.2 6.4 0.00 2.11 0.00 74 1011.5
20260831081606 28 24 0.0 1.6 0.00 2.11 0.00 75 1011.6
20260831080140 28 23 1.6 4.8 0.00 2.11 0.00 75 1011.7
20260831074540 28 11 0.0 6.4 0.00 2.11 0.00 74 1011.7
20260831073030 29 360 3.2 8.0 0.00 2.11 0.00 73 1012.0
20260831071603 29 18 0.0 3.2 0.00 2.11 0.00 72 1012.0
20260831070149 29 17 1.6 4.8 0.00 2.11 0.00 72 1012.1
20260831064542 29 15 1.6 3.2 0.00 2.11 2.11 72 1012.0
20260831061601 29 13 0.0 4.8 0.00 2.11 2.11 72 1011.9
20260831060144 29 11 0.0 3.2 0.00 2.11 2.11 72 1011.9
20260831054528 29 12 1.6 6.4 0.00 2.11 2.11 72 1011.9
20260831053014 29 13 4.8 12.9 0.00 2.11 2.11 73 1011.8
20260831051555 30 41 4.8 9.7 0.00 2.11 2.11 72 1011.8
20260831050144 30 5 4.8 9.7 0.00 2.11 2.11 73 1011.9
20260831044531 31 309 3.2 8.0 0.00 2.11 2.11 75 1012.1
20260831043020 31 302 4.8 12.9 0.00 2.11 2.11 75 1012.2
20260831041513 31 291 4.8 11.3 0.00 2.11 2.11 74 1012.0
20260831040156 31 320 3.2 11.3 0.00 2.11 2.11 76 1011.8
20260831034526 31 287 6.4 14.5 0.00 2.11 2.11 77 1011.6
20260831033011 31 292 6.4 11.3 0.00 2.11 2.11 77 1011.2
20260831031605 31 302 6.4 9.7 0.00 2.11 2.11 76 1011.1
20260831030143 31 331 4.8 14.5 0.00 2.11 2.11 77 1011.1
20260831024526 31 267 4.8 11.3 0.00 2.13 2.11 76 1010.7
20260831023020 31 300 4.8 11.3 0.00 2.13 2.11 77 1010.6
20260831021502 31 298 3.2 11.3 0.00 2.13 2.11 77 1010.3